Cross City, FL

12:15 PM EDT on October 21, 2019 (GMT -0400)
Cross City

Weather History for KCTY - September, 2019

Change the Weather History Date:

Friday, September 20, 2019

  Actual Average Record
Temperature  
Mean Temperature 78 °F 78 °F  
Max Temperature 88 °F 88 °F 96 °F (2010)
Min Temperature 68 °F 68 °F 61 °F (2010)
Degree Days  
Heating Degree Days 0    
Month to date heating degree days 0  
Since 1 July heating degree days 0  
Cooling Degree Days 13    
Month to date cooling degree days 352  
Year to date cooling degree days 2610  
Growing Degree Days 28 (Base 50)    
Moisture  
Dew Point 66 °F    
Average Humidity 72    
Maximum Humidity 94    
Minimum Humidity 40    
Precipitation  
Precipitation 0.00 in 0.12 in 1.00 in (2018)
Month to date precipitation 0.67 3.34  
Year to date precipitation 47.07 38.71  
Sea Level Pressure  
Sea Level Pressure 30.13 in    
Wind  
Wind Speed 8 mph (NE)    
Max Wind Speed 16 mph    
Max Gust Speed 23 mph    
Visibility 10 miles    
Events      
T = Trace of Precipitation, MM = Missing Value Source: NWS Daily Summary

Daily Weather History Graph

Daily Weather History Graph

Search for Another Location

Airport or City:

Astronomy

Sep. 20, 2019 Rise Set
Actual Time 7:19 AM EDT 7:31 PM EDT
Civil Twilight 6:55 AM EDT 7:55 PM EDT
Nautical Twilight 6:27 AM EDT 8:23 PM EDT
Astronomical Twilight 5:59 AM EDT 8:51 PM EDT
Moon 11:46 PM EDT (9/20) 12:58 PM EDT (9/20)
Length of Visible Light 12h 59m
Length of Day
12h 12m
Waning Gibbous, 65% of the Moon is Illuminated
Sep 20
Waning Gibbous
Sep 21
Last Quarter
Sep 28
New
Oct 5
First Quarter
Oct 13
Full

Hourly Weather History & Observations

Time (EDT) Temp. Heat Index Dew Point Humidity Pressure Visibility Wind Dir Wind Speed Gust Speed Precip Events Conditions
12:15 AM 71.6 °F - 67.3 °F 86% 30.12 in 10.0 mi NE 10.4 mph - N/A   Mostly Cloudy
12:35 AM 71.2 °F - 67.1 °F 87% 30.13 in 10.0 mi NE 9.2 mph - N/A   Scattered Clouds
12:55 AM 71.1 °F - 67.3 °F 88% 30.12 in 10.0 mi ENE 5.8 mph - N/A   Scattered Clouds
1:15 AM 71.1 °F - 67.1 °F 87% 30.12 in 10.0 mi ENE 6.9 mph - N/A   Overcast
1:35 AM 71.2 °F - 67.3 °F 87% 30.11 in 10.0 mi ENE 5.8 mph - N/A   Overcast
1:55 AM 70.7 °F - 67.1 °F 88% 30.12 in 10.0 mi ENE 5.8 mph - N/A   Mostly Cloudy
2:15 AM 70.5 °F - 67.1 °F 89% 30.11 in 10.0 mi ENE 5.8 mph - N/A   Scattered Clouds
2:35 AM 70.2 °F - 66.9 °F 89% 30.10 in 10.0 mi NE 5.8 mph - N/A   Clear
2:55 AM 69.6 °F - 66.9 °F 91% 30.10 in 10.0 mi NNE 4.6 mph - N/A   Clear
3:15 AM 68.9 °F - 66.9 °F 93% 30.09 in 10.0 mi NNE 3.5 mph - N/A   Scattered Clouds
3:35 AM 68.5 °F - 66.6 °F 93% 30.09 in 10.0 mi North 4.6 mph - N/A   Clear
3:55 AM 68.4 °F - 66.4 °F 93% 30.09 in 10.0 mi NNE 4.6 mph - N/A   Clear
4:15 AM 68.5 °F - 66.4 °F 93% 30.08 in 10.0 mi NNE 4.6 mph - N/A   Clear
4:35 AM 68.4 °F - 66.2 °F 93% 30.09 in 10.0 mi NNE 5.8 mph - N/A   Clear
4:55 AM 68.4 °F - 66.4 °F 93% 30.09 in 10.0 mi NNE 6.9 mph - N/A   Scattered Clouds
5:15 AM 68.4 °F - 66.2 °F 93% 30.10 in 10.0 mi NE 4.6 mph - N/A   Scattered Clouds
5:35 AM 68.0 °F - 66.2 °F 94% 30.10 in 10.0 mi NNE 6.9 mph - N/A   Clear
5:55 AM 68.0 °F - 66.2 °F 94% 30.11 in 10.0 mi NNE 5.8 mph - N/A   Clear
6:15 AM 68.0 °F - 66.0 °F 93% 30.11 in 10.0 mi NNE 6.9 mph - N/A   Clear
6:35 AM 68.0 °F - 66.0 °F 93% 30.12 in 10.0 mi NNE 6.9 mph - N/A   Clear
6:55 AM 67.8 °F - 65.8 °F 93% 30.12 in 10.0 mi NNE 8.1 mph - N/A   Clear
7:15 AM 67.8 °F - 65.8 °F 93% 30.13 in 10.0 mi NE 6.9 mph - N/A   Clear
7:35 AM 68.0 °F - 66.0 °F 93% 30.14 in 10.0 mi NNE 8.1 mph - N/A   Scattered Clouds
7:55 AM 68.5 °F - 66.2 °F 92% 30.14 in 10.0 mi NNE 9.2 mph - N/A   Mostly Cloudy
8:15 AM 69.3 °F - 66.4 °F 91% 30.15 in 10.0 mi NE 8.1 mph - N/A   Overcast
8:35 AM 69.6 °F - 66.6 °F 90% 30.15 in 10.0 mi NE 8.1 mph - N/A   Overcast
8:55 AM 71.6 °F - 68.0 °F 88% 30.15 in 10.0 mi NE 9.2 mph - N/A   Overcast
9:15 AM 71.6 °F - 67.5 °F 87% 30.16 in 10.0 mi NE 8.1 mph - N/A   Unknown
9:35 AM 73.8 °F - 68.2 °F 83% 30.16 in 10.0 mi NE 9.2 mph - N/A   Unknown
9:55 AM 74.1 °F - 68.4 °F 82% 30.16 in 10.0 mi NNE 10.4 mph - N/A   Unknown
10:15 AM 75.2 °F - 68.0 °F 78% 30.16 in 10.0 mi NE 11.5 mph 17.3 mph N/A   Unknown
10:35 AM 79.3 °F - 69.8 °F 72% 30.16 in 10.0 mi NNE 12.7 mph - N/A   Unknown
10:55 AM 79.5 °F - 69.4 °F 71% 30.16 in 10.0 mi NNE 10.4 mph - N/A   Unknown
11:15 AM 80.8 °F 83.9 °F 69.4 °F 68% 30.17 in 10.0 mi NE 11.5 mph 17.3 mph N/A   Unknown
11:35 AM 81.7 °F 85.2 °F 69.8 °F 67% 30.16 in 10.0 mi ENE 8.1 mph - N/A   Unknown
11:55 AM 83.1 °F 86.8 °F 69.3 °F 63% 30.16 in 10.0 mi ENE 11.5 mph 16.1 mph N/A   Unknown
12:15 PM 82.4 °F 85.8 °F 68.9 °F 64% 30.16 in 10.0 mi NE 16.1 mph 20.7 mph N/A   Unknown
12:35 PM 84.4 °F 88.2 °F 69.1 °F 60% 30.16 in 10.0 mi NE 11.5 mph 17.3 mph N/A   Unknown
12:55 PM 85.3 °F 89.1 °F 68.9 °F 58% 30.16 in 10.0 mi ENE 9.2 mph 20.7 mph N/A   Unknown
1:15 PM 86.5 °F 90.0 °F 68.0 °F 54% 30.15 in 10.0 mi East 10.4 mph 18.4 mph N/A   Unknown
1:35 PM 86.2 °F 89.4 °F 68.0 °F 54% 30.15 in 10.0 mi NE 11.5 mph - N/A   Unknown
1:55 PM 86.9 °F 89.6 °F 66.9 °F 51% 30.14 in 10.0 mi East 11.5 mph 20.7 mph N/A   Unknown
2:15 PM 86.7 °F 89.6 °F 67.3 °F 52% 30.14 in - ENE 11.5 mph 19.6 mph N/A   Unknown
2:35 PM 87.1 °F 90.2 °F 67.6 °F 52% 30.13 in 10.0 mi NE 10.4 mph - N/A   Unknown
2:55 PM 87.8 °F 90.4 °F 66.4 °F 49% 30.13 in 10.0 mi ENE 16.1 mph 23.0 mph N/A   Unknown
3:15 PM 84.9 °F 86.6 °F 65.1 °F 51% 30.12 in 10.0 mi ENE 8.1 mph 16.1 mph N/A   Unknown
3:35 PM 87.6 °F 89.7 °F 65.8 °F 48% 30.11 in 7.0 mi NE 11.5 mph 16.1 mph N/A   Unknown
3:55 PM 87.6 °F 89.1 °F 64.4 °F 46% 30.11 in 10.0 mi East 10.4 mph 18.4 mph N/A   Unknown
4:15 PM 87.4 °F 88.2 °F 63.1 °F 44% 30.11 in 10.0 mi NE 10.4 mph 20.7 mph N/A   Unknown
4:35 PM 87.6 °F 87.7 °F 61.5 °F 41% 30.11 in 10.0 mi ENE 12.7 mph - N/A   Clear
4:55 PM 87.4 °F 87.2 °F 60.3 °F 40% 30.11 in 10.0 mi ENE 9.2 mph 23.0 mph N/A   Clear
5:15 PM 87.3 °F 87.0 °F 60.1 °F 40% 30.11 in 10.0 mi ENE 10.4 mph 18.4 mph N/A   Clear
5:35 PM 87.1 °F 87.0 °F 60.8 °F 41% 30.11 in 10.0 mi ENE 8.1 mph - N/A   Unknown
5:55 PM 86.4 °F 87.3 °F 63.1 °F 46% 30.11 in - ENE 9.2 mph - N/A   Unknown
6:15 PM 85.1 °F 86.6 °F 64.8 °F 50% 30.11 in 10.0 mi ENE 10.4 mph 19.6 mph N/A   Unknown
6:35 PM 83.7 °F 85.5 °F 65.3 °F 54% 30.12 in 10.0 mi East 5.8 mph - N/A   Unknown
6:55 PM 82.8 °F 84.7 °F 65.5 °F 56% 30.12 in 10.0 mi East 5.8 mph - N/A   Unknown
7:15 PM 81.3 °F 83.0 °F 64.9 °F 57% 30.12 in 10.0 mi East 5.8 mph - N/A   Unknown
7:35 PM 79.5 °F - 65.7 °F 62% 30.13 in 10.0 mi ENE 3.5 mph - N/A   Unknown
7:55 PM 78.6 °F - 65.5 °F 64% 30.13 in 10.0 mi ENE 4.6 mph - N/A   Unknown
8:15 PM 77.5 °F - 65.5 °F 66% 30.14 in 10.0 mi ENE 3.5 mph - N/A   Unknown
8:35 PM 77.2 °F - 65.3 °F 67% 30.15 in 10.0 mi East 4.6 mph - N/A   Unknown
8:55 PM 76.6 °F - 65.1 °F 67% 30.15 in 10.0 mi ENE 4.6 mph - N/A   Unknown
9:15 PM 76.1 °F - 65.1 °F 69% 30.15 in 10.0 mi ENE 5.8 mph - N/A   Unknown
9:35 PM 75.6 °F - 64.9 °F 69% 30.16 in 10.0 mi East 3.5 mph - N/A   Unknown
9:55 PM 75.0 °F - 65.1 °F 71% 30.17 in 10.0 mi Calm Calm - N/A   Unknown
10:15 PM 74.5 °F - 65.3 °F 73% 30.18 in 7.0 mi ENE 4.6 mph - N/A   Unknown
10:35 PM 74.1 °F - 65.7 °F 75% 30.18 in 10.0 mi Calm Calm - N/A   Unknown
10:55 PM 73.4 °F - 65.8 °F 77% 30.18 in 10.0 mi ENE 4.6 mph - N/A   Clear
11:15 PM 73.4 °F - 65.8 °F 77% 30.18 in 10.0 mi NE 5.8 mph - N/A   Clear
11:35 PM 73.2 °F - 65.8 °F 78% 30.18 in 10.0 mi NE 5.8 mph - N/A   Clear
11:55 PM 72.9 °F - 66.0 °F 79% 30.18 in 10.0 mi ENE 5.8 mph - N/A   Unknown